SCP
0 0 0 0 0 0 0 0 0 0 0 1 1 1 1 2 2 2 2 2 3 3 3 2 2 1 1 1 1 1 1 1 2 2 2 2 1 2 2 2 2 2 2 2
0 0 0 0 0 0 0 0 0 0 0 1 1 2 2 2 2 2 2 2 3 2 2 2 2 2 1 1 1 1 1 1 2 2 2 2 2 2 2 2 2 2 2 2
0 0 0 0 0 0 0 0 0 0 1 1 2 2 2 2 2 2 2 2 3 3 2 2 2 2 2 2 2 2 2 2 2 2 2 2 2 2 3 3 3 3 2 2
0 0 0 0 0 0 0 1 1 1 1 2 2 3 2 2 3 3 3 3 3 3 3 2 2 2 2 2 3 3 3 2 2 3 3 3 3 3 4 4 4 4 4 3
0 0 0 0 1 1 1 1 1 1 2 2 3 3 2 2 2 3 3 3 3 3 3 2 2 2 2 3 3 3 3 3 3 4 3 3 4 4 5 5 6 6 5 5
0 0 0 0 1 1 1 1 1 2 2 2 2 2 2 2 2 3 3 3 4 3 3 3 2 2 3 3 3 3 2 2 3 4 4 4 4 5 6 7 7 7 7 6
0 0 0 1 1 1 1 1 2 2 2 2 2 2 2 2 2 3 3 3 3 3 3 3 2 2 3 3 3 2 2 2 3 3 4 4 4 5 6 6 7 6 6 5
0 0 1 1 1 1 1 2 2 2 2 2 3 3 3 3 3 3 3 2 3 3 3 3 2 3 3 3 2 2 2 2 3 3 3 4 4 5 6 6 5 4 4 3
0 1 1 1 1 1 1 2 2 2 2 2 2 3 3 3 3 2 2 2 2 2 2 2 2 3 2 2 2 2 2 2 3 3 3 4 5 6 6 5 4 4 2 1
1 1 1 1 1 1 1 2 2 2 2 2 2 3 3 3 2 2 2 1 1 1 2 2 2 2 2 2 2 2 2 2 3 3 4 4 5 4 4 4 4 3 2 1
1 1 1 1 1 1 1 2 2 2 2 2 2 3 3 3 2 2 1 1 1 1 1 1 2 2 2 2 3 2 2 2 2 3 3 3 3 2 1 1 2 2 1 0
1 1 2 1 1 1 2 2 2 2 2 2 2 3 3 2 2 1 1 1 1 1 1 1 1 2 2 2 2 2 2 2 2 1 1 1 1 0 0 0 0 0 0 0
1 1 1 1 1 2 2 2 2 2 2 2 2 2 1 1 1 1 0 0 1 1 2 1 1 2 2 2 2 2 1 1 1 0 0 0 0 0 0 0 0 0 0 0
1 1 1 1 1 1 1 1 1 1 1 1 1 1 1 0 0 0 0 0 1 1 2 2 2 2 2 2 2 1 1 0 0 0 0 0 0 0 0 0 0 0 0 0
1 1 1 1 1 1 1 1 1 1 1 1 1 1 0 0 0 0 0 0 1 1 2 2 2 2 2 3 2 1 0 0 0 0 0 0 0 0 0 0 0 0 0 0
1 1 1 0 0 0 0 0 0 0 1 1 1 0 0 0 0 0 0 0 1 1 2 2 1 2 2 2 1 0 0 0 0 0 0 0 0 0 0 0 0 0 0 0
0 0 0 0 0 0 0 0 0 1 0 0 0 0 0 0 0 0 0 0 0 1 1 1 1 1 1 1 0 0 0 0 0 0 0 0 0 0 0 0 0 0 0 0
0 0 0 0 0 0 0 0 0 0 0 0 0 0 0 0 0 0 0 0 0 0 0 0 0 0 0 0 0 0 0 0 0 0 0 0 0 0 0 0 0 0 0 0
0 0 0 0 0 0 0 0 0 0 0 0 0 0 0 0 0 0 0 0 0 0 0 0 0 0 0 0 0 0 0 0 0 0 0 0 0 0 0 0 0 0 0 0
0 0 0 0 0 0 0 0 0 0 0 0 0 0 0 0 0 0 0 0 0 0 0 0 0 0 0 0 0 0 0 0 0 0 0 0 0 0 0 0 0 0 0 0
1 1 0 0 0 0 0 0 0 0 0 0 0 0 0 0 0 0 0 0 0 0 0 0 0 0 0 0 0 0 0 0 0 0 0 0 0 0 0 0 0 0 0 0
1 1 1 0 0 0 0 0 0 0 0 0 0 0 0 0 0 0 0 0 0 0 0 0 0 0 0 0 0 0 0 0 0 0 0 0 0 0 0 0 0 0 0 0
1 0 0 0 0 0 0 0 0 0 0 0 0 0 0 0 0 0 0 0 0 0 0 0 0 0 0 0 0 0 0 0 0 0 0 0 0 0 0 0 0 0 0 0
0 0 0 0 0 0 0 0 0 0 0 0 0 0 0 0 0 0 0 0 0 0 0 0 0 0 0 0 0 0 0 0 0 0 0 0 0 0 0 0 0 0 0 0
0 0 0 0 0 0 0 0 0 0 0 0 0 0 0 0 0 0 0 0 0 0 0 0 0 0 0 0 0 0 0 0 0 0 0 0 0 0 0 0 0 0 0 0
0 0 0 0 0 0 0 0 0 0 0 0 0 0 0 0 0 0 0 0 0 0 0 0 0 0 0 0 0 0 0 0 0 0 0 0 0 0 0 0 0 0 0 0
0 0 0 0 0 0 0 0 0 0 0 0 0 0 0 0 0 0 0 0 0 0 0 0 0 0 0 0 0 0 0 0 0 0 0 0 0 0 0 0 0 0 0 0
Wind_Speed
12 6 7 11 12 14 15 15 12 10 10 5 6 7 7 8 9 10 9 9 9 8 8 8 7 7 6 6 6 6 7 7 7 7 6 7 7 7 7 7 7 7 6 6
11 10 10 12 12 13 14 14 13 11 8 2 5 7 8 8 9 9 9 9 8 8 8 8 7 7 6 6 6 6 7 7 7 7 7 7 7 7 8 7 7 7 7 7
12 10 11 15 14 14 13 12 12 12 5 5 7 7 8 8 8 8 8 7 7 7 7 6 6 6 6 6 6 7 7 7 7 7 7 8 8 8 8 8 8 8 8 8
10 10 16 7 1 7 10 10 9 6 1 3 6 7 6 5 7 7 7 6 5 5 5 5 6 6 6 6 7 7 7 7 7 7 7 7 8 8 8 7 8 8 8 9
11 14 14 6 4 6 9 9 7 7 5 6 10 10 7 5 6 6 5 5 4 4 4 4 5 6 6 7 7 7 7 7 7 8 8 8 9 9 8 8 9 8 9 10
11 14 14 7 4 2 6 10 5 6 7 9 11 8 7 7 6 6 5 4 4 4 4 4 4 5 7 7 7 7 7 7 7 7 8 9 9 9 9 9 10 9 10 9
13 13 10 3 4 5 10 2 3 4 6 7 5 4 10 8 7 6 5 4 3 3 3 3 4 5 6 6 6 6 7 7 7 8 8 9 9 9 10 10 10 10 11 9
12 14 9 5 4 4 2 4 3 3 4 5 7 8 8 8 6 6 5 4 4 3 3 3 3 5 6 6 6 6 7 8 8 9 8 9 11 10 10 11 12 11 11 10
6 2 5 2 2 4 2 2 3 4 5 6 6 6 6 6 5 5 4 4 3 4 4 3 2 3 5 5 7 8 8 9 9 10 9 9 10 11 9 9 9 9 9 9
5 3 2 2 2 2 2 2 3 3 3 4 5 5 4 4 4 4 3 3 3 4 4 3 3 3 4 6 7 9 10 10 10 10 10 9 7 7 7 7 8 8 9 9
7 2 2 3 2 3 3 3 4 4 3 3 4 4 4 4 4 3 3 3 3 4 4 4 4 4 5 6 8 10 11 10 10 10 10 10 9 7 7 7 6 8 8 9
4 1 2 2 3 3 3 3 3 3 4 3 3 4 4 4 4 4 4 4 4 4 5 4 4 5 5 7 9 11 10 10 9 9 9 10 11 12 18 15 17 15 12 10
2 2 2 3 2 2 2 3 3 3 3 3 3 4 4 5 4 4 5 5 5 5 5 5 6 6 6 7 9 10 11 10 9 9 10 10 10 11 12 14 18 17 15 14
1 1 2 2 2 2 3 3 4 4 4 4 4 5 5 5 5 5 5 6 6 6 6 6 7 8 7 8 10 11 11 11 11 9 9 9 10 10 10 12 11 9 11 12
3 2 1 2 3 4 4 4 5 5 5 5 5 5 6 6 6 6 6 7 7 7 8 8 9 9 8 10 11 12 11 9 9 9 9 9 10 10 10 11 11 10 10 9
3 3 3 4 5 5 5 5 5 5 5 6 6 6 6 7 7 7 7 7 8 9 8 9 10 9 9 11 12 10 10 14 12 10 10 10 10 10 10 10 10 9 9 9
6 7 7 7 6 6 5 5 5 6 7 7 7 8 8 8 9 9 8 8 9 9 10 10 10 10 10 11 11 10 11 12 13 10 9 9 9 9 9 9 9 8 8 7
7 6 6 7 6 7 7 7 7 8 8 8 9 9 9 9 10 10 10 10 11 11 10 10 10 11 11 11 10 10 10 9 9 9 9 8 8 8 8 8 9 9 9 9
6 6 7 7 7 7 8 8 8 9 9 9 10 10 10 10 10 10 11 11 11 11 10 10 10 11 11 11 10 8 9 10 9 9 8 8 8 8 7 8 8 8 8 8
8 8 9 9 9 9 10 10 10 10 9 10 11 11 11 11 11 11 10 9 7 8 10 9 9 10 10 10 8 8 9 10 9 9 8 8 7 7 7 7 8 8 7 7
9 10 10 10 10 10 11 11 11 11 10 11 11 11 11 11 10 9 9 9 8 9 10 8 7 8 8 8 7 8 8 8 8 8 7 7 7 7 7 7 7 7 7 6
9 10 11 11 11 11 11 10 11 12 11 11 11 11 11 11 10 8 8 7 8 6 7 7 7 9 8 7 7 7 8 8 7 7 6 7 7 7 7 7 7 6 6 6
9 10 11 12 12 12 12 11 11 11 11 11 11 10 10 8 7 7 7 6 7 5 5 6 9 10 7 6 6 7 7 7 6 6 6 6 6 6 6 7 6 6 6 6
10 11 11 12 12 12 12 11 10 9 10 9 9 9 8 7 6 6 7 8 7 6 5 8 9 7 5 5 5 6 6 6 6 6 6 6 6 6 6 6 6 6 6 6
10 11 11 12 11 10 11 11 11 10 10 8 9 8 6 5 6 6 7 8 8 6 7 7 6 5 5 4 5 5 5 5 4 5 5 5 5 6 5 6 6 6 6 6
10 9 8 8 7 8 8 8 8 7 7 7 7 6 6 6 7 6 6 8 8 6 6 7 7 6 5 5 5 5 5 6 6 6 5 5 6 6 6 6 7 6 6 6
10 8 7 7 7 7 7 7 7 7 6 7 6 6 6 6 6 6 6 6 6 6 5 5 6 6 6 5 5 5 5 5 5 5 6 6 6 6 6 7 6 6 6 6
Wind_Direction
254 265 238 229 222 213 224 242 252 248 248 231 181 172 162 157 155 156 159 163 164 163 162 165 166 168 170 170 168 173 176 178 176 172 168 163 156 154 153 152 151 149 146 144
234 234 236 239 234 225 226 237 246 256 252 130 134 149 156 160 159 157 159 163 163 164 166 170 170 172 173 172 171 174 178 178 170 163 163 161 155 148 141 137 135 133 130 127
236 221 230 233 229 228 226 230 240 243 239 154 157 156 158 158 158 153 151 155 162 164 168 171 174 175 174 173 172 174 173 169 165 163 161 157 153 146 141 138 132 126 121 117
241 224 236 238 226 245 243 238 240 253 198 164 139 125 124 139 145 142 142 143 145 152 161 169 173 174 174 171 173 172 169 166 163 160 154 151 145 140 138 135 130 124 122 119
238 233 235 214 202 222 232 234 228 225 185 147 137 137 120 111 117 122 126 134 137 141 153 165 171 175 175 172 170 170 168 163 160 157 150 145 143 138 134 128 121 117 117 117
233 243 244 231 149 196 244 235 200 201 183 168 178 199 131 125 120 116 115 115 122 134 146 153 168 176 172 171 171 170 164 156 151 150 143 138 134 130 125 121 118 115 110 109
235 240 244 98 129 191 229 238 118 175 176 181 180 48 106 117 111 112 113 112 117 125 123 142 166 171 168 165 169 162 151 147 144 140 135 132 126 125 123 119 115 110 105 101
232 239 231 100 179 225 23 53 91 134 144 132 105 104 112 114 115 116 115 112 114 115 111 122 155 165 163 162 158 149 140 135 133 130 127 126 124 122 122 122 118 115 111 105
242 255 62 63 37 43 22 84 96 111 119 128 129 126 124 121 116 112 113 116 121 121 114 104 122 153 153 149 146 137 129 125 122 118 116 120 123 124 123 124 123 125 122 115
244 201 124 116 117 96 75 88 92 103 121 135 140 137 132 126 121 114 114 120 120 117 112 100 89 108 124 132 134 130 125 120 119 118 115 112 112 118 123 127 127 125 121 118
237 217 194 168 143 117 104 105 105 103 105 124 139 142 139 131 125 119 111 108 110 115 115 108 106 108 117 128 131 126 121 119 117 113 111 102 88 74 91 78 93 120 123 125
254 113 260 120 130 142 141 118 103 102 102 100 116 128 130 127 122 121 114 109 112 114 114 113 113 113 117 126 129 126 121 121 118 116 113 111 106 87 63 73 72 72 80 101
355 30 33 94 124 139 127 105 96 99 104 108 108 117 124 121 114 110 108 111 110 110 114 115 114 111 115 125 126 125 126 126 123 122 121 120 119 117 108 83 71 71 78 90
163 173 170 163 145 136 129 119 111 106 103 106 110 115 119 119 114 109 106 105 108 108 108 108 106 102 109 118 119 119 119 118 119 119 120 121 120 120 121 121 116 99 83 91
213 242 253 129 142 147 146 143 132 121 112 108 111 118 122 121 116 109 109 111 110 109 108 106 103 102 107 114 117 118 118 118 117 118 119 119 120 121 122 122 122 122 123 115
199 185 171 167 163 158 157 153 139 129 124 119 117 117 116 114 112 110 111 116 114 110 108 108 106 109 114 114 113 111 110 115 119 121 122 123 124 125 126 128 129 133 138 140
203 197 185 178 168 162 157 149 141 135 130 126 124 121 118 115 111 108 106 104 105 105 107 108 110 114 116 117 117 115 116 119 122 122 123 125 127 130 132 134 136 139 136 132
222 206 184 172 162 154 147 139 132 128 127 126 125 123 121 120 118 115 114 114 109 103 103 110 115 117 117 118 117 117 120 124 122 118 122 125 128 131 133 136 141 141 138 145
188 170 157 151 149 146 138 132 127 123 124 126 125 122 121 122 123 122 122 119 115 112 110 109 111 119 118 117 119 123 125 125 124 124 123 126 138 140 144 147 147 146 145 152
151 146 141 139 137 136 132 129 126 124 126 127 124 122 121 121 122 122 120 114 110 112 121 123 125 119 123 127 132 128 128 129 130 132 138 147 146 147 152 152 151 151 153 158
142 138 137 135 130 129 129 129 127 126 128 130 128 125 122 123 125 125 123 114 109 116 122 125 128 128 128 132 144 133 134 136 138 141 147 151 153 156 156 156 158 159 161 166
139 137 135 132 130 128 129 130 130 131 132 132 130 127 126 126 125 120 111 113 122 130 143 140 133 119 128 145 144 139 141 144 147 151 156 159 160 161 162 165 168 169 170 174
134 132 131 131 130 129 128 129 130 131 131 131 131 133 132 130 134 132 125 123 132 139 145 122 116 127 151 166 144 145 145 149 154 159 162 165 167 167 168 173 177 179 180 182
126 126 127 128 128 127 127 127 126 125 126 126 127 130 132 131 129 120 112 112 110 129 124 112 127 146 189 159 148 154 154 158 165 171 171 172 173 177 180 183 185 185 186 193
123 124 127 129 129 126 125 126 123 124 126 125 126 129 132 126 124 122 123 127 132 142 133 132 145 173 189 159 162 166 170 175 179 181 178 180 185 186 192 195 195 196 200 204
116 115 114 114 114 121 128 128 126 126 128 126 125 127 125 122 123 127 131 137 140 147 148 151 163 186 193 180 179 185 183 171 182 200 196 194 198 200 202 205 208 211 211 214
106 106 107 107 112 116 118 120 122 125 129 130 129 129 131 132 135 139 143 145 151 159 163 169 174 184 191 194 192 192 197 197 198 201 200 205 209 210 208 212 219 218 220 222